Regional Weather Roundup
Issued by NWS Goodland, KS

Home | Current Version | Previous Version | Text Only | Print | Product List | Glossary On
Versions: 1 2 3 4 5 6 7 8 9 10 11 12 13 14 15 16 17 18 19 20 21 22 23 24 25 26 27 28 29 30 31 32 33 34 35 36 37 38 39 40 41 42 43 44 45 46 47 48 49 50
000
ASUS43 KGLD 291559
RWRGLD

GOODLAND FORECAST AREA HOURLY WEATHER ROUNDUP
NATIONAL WEATHER SERVICE GOODLAND KS
900 AM MST MON DEC 29 2014

...OFFICIAL OBSERVATIONS...

CITY           SKY/WX    TMP DP  RH WIND       PRES   REMARKS
GOODLAND KS    FOG       16  15  96 NE15      30.17R VSB 1/2 WCI   1
HILL CITY KS   CLOUDY    22  19  89 NE12      30.27R FOG     WCI  10
IMPERIAL NEB   CLOUDY    16  11  80 NE18      30.25R WCI   0
MCCOOK NEB     LGT SNOW  20  16  84 NE15      30.28R FOG     WCI   6
AKRON CO       FOG       14  13  95 NE15      30.15R VSB 1/4 WCI  -1
BURLINGTON CO  FOG       17  14  88 N14       30.13R VSB 1/4 WCI   3
LIMON CO       CLOUDY    15  13  91 N18       30.08R FOG     WCI  -2
$$

...UNOFFICIAL OBSERVATIONS...

CITY           SKY/WX    TMP DP  RH WIND       PRES   REMARKS
COLBY KS       FOG       18  18 100 NE9       30.22R VSB 1/2
GOVE KS          N/A     18  32 100 MISG        N/A
SHARON SPRINGS   N/A     20  19  93 NE6         N/A
TRIBUNE KS     CLOUDY    21  21 100 N13       30.16R WCI   9
KIT CARSON CO    N/A     16  12  85 MISG        N/A
YUMA CO          N/A     15  11  85 NE12        N/A  WCI   2
$$



USA.gov is the U.S. government's official web portal to all federal, state and local government web resources and services.